[[{"header":{"parameterUnit":"m.s-1","parameterCategory":1,"la1":30.2991,"la2":30.254,"lo1":-89.0895,"lo2":-89.0444,"dy":0.0017,"dx":0.0017,"nx":28,"ny":28,"refTime":"2024-07-23T09:00:00:Z","depth":0,"parameterNumber":2,"parameterNumberName":"U-component_of_WINDS"},"data":[0,0,0,0,0,0,0,0,0,0,0,0,0,0,0,0,0,0,0,0,0,0,0,0,0,0,0,0,0,0,0,0,0,0,0,0,0,0,0,0,0,0,0,0,0,0,0,0,0,0,0,0,0,0,0,0,0,0,0.4495,0.4494,0,0.4415,0.4414,0.4413,0.4361,0.436,0.436,0.436,0.4275,0.4274,0.4272,0,0,0,0,0,0,0,0,0,0,0,0,0,0.4602,0.46,0.4495,0.4494,0.4493,0.4415,0.4414,0.4413,0.4361,0.436,0.436,0.436,0.4276,0.4274,0.4271,0,0,0,0,0,0,0,0,0,0,0,0,0,0.4542,0.46,0.4495,0.4458,0.4454,0.4415,0.4414,0.4412,0.4361,0.436,0.436,0.4359,0.4277,0.4274,0.4271,0.4263,0,0,0.4262,0.4261,0,0,0,0,0,0,0,0,0.4546,0.4538,0.4464,0.446,0.4456,0.4397,0.4421,0.4362,0.4361,0.4396,0.436,0.4359,0.4316,0.431,0.4296,0.4259,0.4256,0.4262,0.426,0.4259,0.4258,0,0,0,0,0,0,0,0.455,0.4541,0.4463,0.4463,0.4458,0.4445,0.4435,0.4409,0.436,0.4393,0.4389,0.438,0.4314,0.4299,0.4294,0.4254,0.4262,0.426,0.4258,0.4257,0.4208,0.4208,0,0,0,0,0,0,0.456,0.4545,0.4466,0.4461,0.45,0.4443,0.4433,0.4416,0.436,0.4351,0.4381,0.4378,0.4304,0.4297,0.4291,0.4278,0.4259,0.4256,0.4255,0.4207,0.4208,0.4208,0,0,0,0,0,0,0.4563,0.4553,0.4469,0.4502,0.449,0.4442,0.4424,0.4415,0.44,0.4351,0.4342,0.4375,0.4304,0.4295,0.4271,0.4274,0.4255,0.4252,0.4207,0.4207,0.4208,0.4252,0,0,0,0,0,0,0.4566,0.4555,0.4551,0.4502,0.4489,0.4451,0.4424,0.4414,0.4396,0.4391,0.4343,0.4334,0.4302,0.4275,0.4268,0.427,0.425,0.4206,0.4207,0.4208,0.425,0.4254,0.4258,0,0,0,0,0,0.457,0.4566,0.4551,0.4542,0.4483,0.4451,0.4443,0.4407,0.4396,0.4392,0.4361,0.4336,0.4275,0.4273,0.4264,0.4266,0.4206,0.4207,0.4208,0.4248,0.4253,0.4258,0,0,0,0,0,0,0.4616,0.4559,0.4542,0.4522,0.4492,0.4443,0.4436,0.4414,0.4385,0.4383,0.4339,0.4328,0.4309,0.4285,0.4284,0.4255,0.4238,0.4237,0.4272,0.4276,0.428,0.4285,0.4248,0,0,0,0,0,0.4624,0.4603,0.4554,0.4542,0.4528,0.4485,0.4469,0.4445,0.4411,0.4398,0.4364,0.4333,0.4306,0.429,0.4263,0.4247,0.4235,0.4243,0.4247,0.425,0.425,0.424,0.4243,0.4212,0.4212,0.4212,0,0,0.464,0.4606,0.4595,0.455,0.4524,0.4503,0.4474,0.4453,0.4437,0.4394,0.437,0.4345,0.4306,0.4286,0.4276,0.4266,0.4257,0.4252,0.4255,0.4252,0.4242,0.4245,0.4247,0.4212,0.4212,0.4212,0,0,0.4658,0.4631,0.4617,0.4592,0.4553,0.4525,0.4522,0.4476,0.4458,0.4433,0.4401,0.4381,0.4337,0.4311,0.4292,0.4303,0.4279,0.4295,0.4314,0.4306,0.4308,0.431,0.4314,0.4316,0.4295,0.4295,0.4295,0,0.4682,0.465,0.4613,0.4594,0.4576,0.4538,0.4524,0.4501,0.4455,0.4442,0.4432,0.4377,0.4348,0.4322,0.4325,0.4311,0.4306,0.43,0.4311,0.4312,0.4314,0.4317,0.4319,0.4297,0.4297,0.4297,0.4297,0,0.4682,0.466,0.4654,0.4612,0.4593,0.4576,0.4537,0.4522,0.45,0.4473,0.4448,0.4413,0.4378,0.4371,0.4348,0.4342,0.4337,0.4319,0.43,0.432,0.4322,0.4323,0.4301,0.43,0.4299,0.4299,0,0,0.4725,0.4665,0.4663,0.4644,0.4599,0.4581,0.4563,0.4531,0.4519,0.4489,0.4473,0.4437,0.4421,0.44,0.4374,0.4366,0.4378,0.435,0.4348,0.4356,0.4369,0.4382,0.4384,0.4362,0.4362,0.4362,0.4372,0,0.4736,0.4704,0.4671,0.4649,0.4629,0.4593,0.4578,0.4549,0.4524,0.4503,0.4474,0.445,0.4431,0.4418,0.4409,0.4378,0.4379,0.4377,0.4346,0.4346,0.4356,0.4385,0.4398,0.4409,0.4373,0.4373,0.4373,0,0.4745,0.4718,0.4695,0.4653,0.4643,0.463,0.4598,0.4578,0.4545,0.4527,0.4504,0.4478,0.4457,0.4442,0.4414,0.4413,0.4398,0.4382,0.4381,0.4376,0.436,0.4381,0.4412,0.4414,0.4374,0.4374,0.4374,0,0.4779,0.4736,0.4717,0.4702,0.4653,0.4644,0.4623,0.4589,0.4572,0.4544,0.4533,0.4503,0.4486,0.4464,0.443,0.4422,0.4405,0.4387,0.439,0.439,0.4387,0.4387,0.4416,0.4379,0.4379,0.4379,0.4379,0,0.4794,0.4781,0.4732,0.472,0.4705,0.4668,0.4654,0.463,0.46,0.4583,0.455,0.4535,0.4491,0.447,0.4443,0.4424,0.4417,0.4402,0.4395,0.4404,0.4406,0.4394,0.4392,0.4379,0.4379,0.4379,0.4379,0,0.4829,0.4795,0.4772,0.4728,0.4717,0.4707,0.4669,0.4657,0.4631,0.4609,0.4602,0.4561,0.4535,0.4499,0.4462,0.4444,0.4428,0.4417,0.444,0.4435,0.444,0.444,0.4461,0.4462,0.4425,0.4426,0.4426,0,0.484,0.483,0.4785,0.4772,0.4752,0.4731,0.4714,0.4678,0.4661,0.4623,0.4615,0.4587,0.4562,0.4523,0.4489,0.4461,0.4448,0.4458,0.4444,0.4454,0.4448,0.4449,0.4448,0.4461,0.4461,0.4462,0.4462,0,0.4865,0.4849,0.4826,0.4798,0.4779,0.4754,0.4728,0.4719,0.4677,0.466,0.4634,0.4615,0.4578,0.4551,0.4518,0.4496,0.4472,0.4467,0.4466,0.4476,0.4489,0.4482,0.4448,0.4467,0.4466,0.4466,0.4466,0.4465,0.4888,0.4877,0.4845,0.482,0.4797,0.4774,0.4761,0.4733,0.4711,0.4678,0.4658,0.4633,0.4601,0.4555,0.4534,0.4514,0.4504,0.4503,0.4502,0.4503,0.4506,0.4493,0.4508,0.4508,0.4508,0.4507,0.4507,0,0.491,0.4888,0.4866,0.4832,0.4813,0.4794,0.4764,0.475,0.4728,0.47,0.4678,0.4648,0.4621,0.4587,0.4558,0.4548,0.4537,0.4542,0.4542,0.4537,0.4516,0.452,0.4552,0.4552,0.4552,0.4552,0.4552,0.4552,0.492,0.4901,0.4882,0.4852,0.4829,0.4805,0.479,0.4769,0.4746,0.4715,0.4693,0.4671,0.4641,0.461,0.4585,0.4575,0.4566,0.4575,0.4562,0.4543,0.4539,0.4535,0.4538,0.4573,0.4573,0.4584,0.4584,0.4584]},{"header":{"parameterUnit":"m.s-1","parameterCategory":1,"la1":30.2991,"la2":30.254,"lo1":-89.0895,"lo2":-89.0444,"dy":0.0017,"dx":0.0017,"nx":28,"ny":28,"refTime":"2024-07-23T09:00:00:Z","depth":0,"parameterNumber":3,"parameterNumberName":"V-component_of_WINDS"},"data":[0,0,0,0,0,0,0,0,0,0,0,0,0,0,0,0,0,0,0,0,0,0,0,0,0,0,0,0,0,0,0,0,0,0,0,0,0,0,0,0,0,0,0,0,0,0,0,0,0,0,0,0,0,0,0,0,0,0,-0.1273,-0.1271,0,-0.1124,-0.1122,-0.1121,-0.1063,-0.1063,-0.1063,-0.1064,-0.0905,-0.0901,-0.0896,0,0,0,0,0,0,0,0,0,0,0,0,0,-0.15,-0.1496,-0.1273,-0.1271,-0.1269,-0.1124,-0.1122,-0.112,-0.1063,-0.1063,-0.1064,-0.1064,-0.0907,-0.0902,-0.0896,0,0,0,0,0,0,0,0,0,0,0,0,0,-0.1381,-0.1495,-0.1273,-0.1223,-0.1217,-0.1125,-0.1122,-0.112,-0.1062,-0.1063,-0.1064,-0.1064,-0.0909,-0.0902,-0.0895,-0.084,0,0,-0.0874,-0.0871,0,0,0,0,0,0,0,0,-0.1388,-0.1373,-0.1232,-0.1226,-0.1219,-0.1113,-0.1144,-0.1026,-0.1062,-0.1121,-0.1064,-0.1065,-0.0973,-0.0961,-0.0932,-0.0833,-0.0826,-0.0874,-0.0869,-0.0866,-0.0864,0,0,0,0,0,0,0,-0.1396,-0.1379,-0.1214,-0.123,-0.1222,-0.1206,-0.119,-0.1121,-0.1045,-0.1116,-0.1111,-0.1095,-0.097,-0.0939,-0.0928,-0.0823,-0.0874,-0.0868,-0.0863,-0.0861,-0.0668,-0.0667,0,0,0,0,0,0,-0.1414,-0.1386,-0.1218,-0.1209,-0.1307,-0.1201,-0.1183,-0.1146,-0.1046,-0.1031,-0.1094,-0.1093,-0.095,-0.0936,-0.0922,-0.0848,-0.0866,-0.086,-0.0856,-0.0669,-0.0668,-0.0667,0,0,0,0,0,0,-0.1419,-0.1399,-0.1224,-0.1296,-0.1273,-0.1197,-0.1156,-0.1143,-0.1111,-0.103,-0.1015,-0.1077,-0.095,-0.0932,-0.0861,-0.0842,-0.0857,-0.0851,-0.067,-0.0669,-0.0667,-0.0703,0,0,0,0,0,0,-0.1426,-0.1402,-0.1381,-0.1297,-0.1269,-0.1168,-0.1155,-0.1139,-0.11,-0.1097,-0.1009,-0.0995,-0.0949,-0.0871,-0.0854,-0.0833,-0.0845,-0.0671,-0.067,-0.0668,-0.0703,-0.0703,-0.0703,0,0,0,0,0,-0.1434,-0.1397,-0.1381,-0.1361,-0.1243,-0.1167,-0.1151,-0.11,-0.1099,-0.1077,-0.1024,-0.0998,-0.0848,-0.0864,-0.0844,-0.0821,-0.0672,-0.067,-0.0668,-0.0703,-0.0703,-0.0703,0,0,0,0,0,0,-0.148,-0.1385,-0.1366,-0.13,-0.1242,-0.1157,-0.1128,-0.1102,-0.1042,-0.1041,-0.0978,-0.0959,-0.0892,-0.085,-0.087,-0.0761,-0.0758,-0.0752,-0.0791,-0.079,-0.079,-0.0801,-0.0839,0,0,0,0,0,-0.1483,-0.1431,-0.135,-0.1299,-0.1271,-0.1205,-0.117,-0.1136,-0.1072,-0.1047,-0.0989,-0.0927,-0.0865,-0.0826,-0.0764,-0.0697,-0.0675,-0.0671,-0.0671,-0.0671,-0.0666,-0.0624,-0.062,-0.066,-0.066,-0.066,0,0,-0.1487,-0.1429,-0.1399,-0.1307,-0.1258,-0.1204,-0.1185,-0.1128,-0.1086,-0.1038,-0.0967,-0.0923,-0.0848,-0.0779,-0.0745,-0.0741,-0.065,-0.0668,-0.0669,-0.0663,-0.0622,-0.0618,-0.0615,-0.0658,-0.0659,-0.0659,0,0,-0.1467,-0.1419,-0.1371,-0.1322,-0.1249,-0.1205,-0.1193,-0.1112,-0.1081,-0.101,-0.0971,-0.092,-0.0815,-0.0764,-0.0724,-0.0683,-0.0656,-0.0665,-0.0663,-0.0624,-0.0621,-0.0617,-0.0601,-0.0596,-0.066,-0.066,-0.066,0,-0.1481,-0.14,-0.1349,-0.1294,-0.1254,-0.1209,-0.1158,-0.1113,-0.1023,-0.0995,-0.0992,-0.0859,-0.0806,-0.0723,-0.0713,-0.0683,-0.0665,-0.0674,-0.0626,-0.0622,-0.0618,-0.0601,-0.0595,-0.0662,-0.0661,-0.0661,-0.0661,0,-0.142,-0.1364,-0.1333,-0.1249,-0.1205,-0.1153,-0.1091,-0.1052,-0.1022,-0.0978,-0.0904,-0.0839,-0.0763,-0.0741,-0.071,-0.0652,-0.0651,-0.0638,-0.0633,-0.0617,-0.06,-0.0593,-0.0664,-0.0663,-0.0663,-0.0662,0,0,-0.1424,-0.1312,-0.1302,-0.1262,-0.1177,-0.1132,-0.1076,-0.1004,-0.097,-0.0909,-0.0859,-0.0772,-0.0759,-0.0713,-0.0676,-0.0642,-0.0611,-0.0632,-0.0629,-0.0628,-0.0539,-0.0548,-0.0542,-0.0593,-0.0591,-0.059,-0.0544,0,-0.1391,-0.1292,-0.1244,-0.1165,-0.1111,-0.1068,-0.1019,-0.096,-0.0917,-0.0863,-0.0814,-0.0752,-0.0741,-0.0712,-0.0677,-0.0622,-0.0591,-0.0625,-0.0543,-0.054,-0.0561,-0.0533,-0.0543,-0.0503,-0.0538,-0.0537,-0.0536,0,-0.134,-0.1281,-0.1197,-0.1117,-0.1092,-0.105,-0.0978,-0.0928,-0.086,-0.083,-0.078,-0.0744,-0.068,-0.0682,-0.0592,-0.0616,-0.0579,-0.0548,-0.0545,-0.0533,-0.0536,-0.0519,-0.0489,-0.0483,-0.0525,-0.0526,-0.0527,0,-0.1349,-0.1248,-0.1184,-0.1152,-0.1058,-0.1028,-0.0987,-0.092,-0.0879,-0.0816,-0.0788,-0.0718,-0.0679,-0.0624,-0.0569,-0.0575,-0.0484,-0.0481,-0.0455,-0.0456,-0.0436,-0.0438,-0.0398,-0.0416,-0.0416,-0.0416,-0.0417,0,-0.1317,-0.1266,-0.1187,-0.1148,-0.1089,-0.1033,-0.0976,-0.0931,-0.0872,-0.0821,-0.0778,-0.0731,-0.0662,-0.0605,-0.0561,-0.0492,-0.0475,-0.0448,-0.0436,-0.045,-0.0454,-0.0424,-0.0424,-0.0415,-0.0415,-0.0415,-0.0416,0,-0.1316,-0.1262,-0.1189,-0.1106,-0.1084,-0.1044,-0.0972,-0.093,-0.0885,-0.0821,-0.0802,-0.073,-0.0661,-0.0601,-0.0509,-0.0479,-0.0407,-0.0395,-0.0431,-0.0424,-0.0401,-0.0403,-0.0339,-0.0327,-0.0356,-0.0356,-0.0356,0,-0.1299,-0.1259,-0.1172,-0.1136,-0.1096,-0.1038,-0.0996,-0.0939,-0.0897,-0.0815,-0.0783,-0.0711,-0.065,-0.0541,-0.0478,-0.0407,-0.0391,-0.0373,-0.038,-0.0394,-0.0387,-0.039,-0.0384,-0.0373,-0.0373,-0.0373,-0.0373,0,-0.1272,-0.1247,-0.1189,-0.1121,-0.1073,-0.1016,-0.0958,-0.093,-0.0861,-0.0815,-0.0745,-0.0698,-0.0604,-0.0532,-0.0454,-0.0409,-0.0378,-0.0371,-0.0361,-0.0374,-0.0396,-0.0381,-0.0428,-0.0373,-0.0373,-0.0373,-0.0373,-0.0373,-0.1261,-0.1223,-0.1155,-0.1092,-0.1042,-0.0989,-0.0945,-0.0895,-0.0836,-0.0756,-0.0726,-0.0653,-0.0583,-0.0475,-0.043,-0.037,-0.0365,-0.0351,-0.0347,-0.0344,-0.0345,-0.0407,-0.0356,-0.0355,-0.0355,-0.0355,-0.0355,0,-0.123,-0.1185,-0.1127,-0.1047,-0.0997,-0.0975,-0.0909,-0.0867,-0.0804,-0.0743,-0.0684,-0.0602,-0.0531,-0.0463,-0.0388,-0.0353,-0.0337,-0.0335,-0.0336,-0.0326,-0.0355,-0.037,-0.035,-0.035,-0.035,-0.035,-0.035,-0.035,-0.1208,-0.1142,-0.1108,-0.1016,-0.097,-0.09,-0.0864,-0.0813,-0.0764,-0.0674,-0.0616,-0.0573,-0.0508,-0.0428,-0.0361,-0.0343,-0.0316,-0.0317,-0.0295,-0.0323,-0.0324,-0.0325,-0.0339,-0.0313,-0.0313,-0.027,-0.027,-0.027]}]]